"Pseudo-MPEC" for C2YQRL2

Created 2020 Aug 7 3:07:06 UT using Find_Orb

Click here for an explanation of pseudo-MPECs

 
 Astrometry: 
     C2YQRL2  C2020 08 01.44721 00 38 21.14 +25 14 56.9    ~81BM 20.6 GVNEOCPG96
     C2YQRL2  C2020 08 01.45587 00 38 22.21 +25 16 24.9    ~81BM 21.4 GVNEOCPG96
     C2YQRL2  C2020 08 01.46019 00 38 22.75 +25 17 07.9    ~81BM 20.2 GVNEOCPG96
     C2YQRL2  C2020 08 01.48015 00 38 25.21 +25 20 26.4    ~81Bq 21.9 GVNEOCPG96
     C2YQRL2  C2020 08 01.48055 00 38 25.24 +25 20 30.4    ~81Bq 19.9 GVNEOCPG96
     C2YQRL2  C2020 08 01.48096 00 38 25.30 +25 20 34.1    ~81Bq 20.5 GVNEOCPG96
     C2YQRL2  C2020 08 01.48136 00 38 25.35 +25 20 37.6    ~81Bq 21.3 GVNEOCPG96
     C2YQRL2  C2020 08 02.36818 00 45 22.39 +27 54 08.2    ~829q 20.7 GVNEOCPG96
     C2YQRL2  C2020 08 02.37305 00 45 23.53 +27 55 07.1    ~829q 20.0 GVNEOCPG96
     C2YQRL2 FC2020 08 03.99390401 00 16.45 +33 13 56.6    ~8737 20.9 GVNEOCPJ95
     C2YQRL2 KC2020 08 04.02563101 00 32.60 +33 21 41.6    ~8737 20.3 GVNEOCPJ95
     C2YQRL2 KC2020 08 04.05707501 00 47.52 +33 29 18.7    ~8737 20.4 GVNEOCPJ95
     C2YQRL2 IC2020 08 07`$tcq1;@62@p4vR3FlV+?VXguuK\,e`ZO2kjR\HL]xXpy5/@\?x#L01
     C2YQRL2 IC2020 08 07:NAstrometry)v4n6nCH_gACIxo`redacted;P(0)=L87bW5@K=IL01
     C2YQRL2 pC2020 08 07GQ=8E;`+(;Xu$/#4clicklthere:+1W!whip='oXBT;][AUmp3N!L01
     C2YQRL2 pC2020 08 07IH;T4Lp5for#8S#(#u/s-+explanationMHhbCwVn02B1[D'iX-:L01

Station data:
(G96) Mt. Lemmon Survey  (N32.442754 W110.788720)  US/Arizona.  Observers T.
   A. Pruyne, B. M. Africano, E. J. Christensen, G. A. Farneth, D. C. Fuls,
   A. R. Gibbs, A. D. Grauer, H. Gröller, J. A. Johnson, R. A. Kowalski, S.
   M. Larson, G. J. Leonard, D. Rankin, R. L. Seaman, F. C. Shelly. 1.5-m
   reflector + 10K CCD.
(J95) Great Shefford  (N51.474969 W1.447003)  UK.  Observer P. Birtwhistle.
   0.40-m f/6.0 Schmidt-Cassegrain + CCD.
(L01) Višnjan Observatory, Tičan  (N45.290900 E13.749300)  Croatia.
   Observers K. Korlević, E. Pettarin. Measurer E. Pettarin. 1.0-m f/2.9
   reflector + CCD.

Orbital elements:  C2YQRL2
   Perihelion 2020 Dec 16.601094 +/- 0.0123 TT = 14:25:34 (JD 2459200.101094)
Epoch 2020 Aug  7.0 TT = JDT 2459068.5   Earth MOID: 0.0042   AutoNEOCP
M 218.31353369 +/- 0.0055           (J2000 ecliptic)
n   1.07663593 +/- 5.91e-5          Peri.  182.68579 +/- 0.009
a   0.94280845 +/- 3.45e-5          Node   280.14745 +/- 0.007
e   0.0930519 +/- 5.26e-5           Incl.    0.47414 +/- 0.00044
P   0.92/334.37d           H 28.1   G  0.15   U  6.2  
q 0.85507825 +/- 8.09e-5    Q 1.03053865 +/- 1.19e-5
From 16 observations 2020 Aug. 1-7; mean residual 0".37
Residuals in arcseconds: 
200801 G96  .06-  .34+    200801 G96  .25+  .89-    200807 L01  .11+  .47-    
200801 G96  .10-  .63+    200802 G96  .15-  .05+    200807 L01  .24-  .51-    
200801 G96  .03+  .13+    200802 G96  .08+  .09-    200807 L01  .70+  .26+    
200801 G96  .36+  .16-    200803 J95  .71+  .16+    200807 L01  .26-  .45+    
200801 G96  .10+  .10-    200804 J95  .60-  .26-    
200801 G96  .24+  .45-    200804 J95  .22-  .18+    

Ephemerides (geocentric):
Date (UTC) HH   RA              Dec         delta   r     elong  mag " sig PA
---- -- -- --  -------------   -----------  ------ ------ -----  --- ---- ---
2020 08 07 03  01 48 00.143   +46 33 35.12  .00884 1.0144  91.3 21.0 .434 111
2020 08 07 04  01 48 56.263   +46 45 23.75  .00882 1.0143  91.2 21.0 .433 112
2020 08 07 05  01 49 53.031   +46 57 13.61  .00880 1.0143  91.0 21.0 .432 113
2020 08 07 06  01 50 50.457   +47 09 04.64  .00878 1.0142  90.8 21.0 .431 114
2020 08 07 07  01 51 48.549   +47 20 56.80  .00876 1.0142  90.6 21.0 .430 115
2020 08 07 08  01 52 47.319   +47 32 50.02  .00875 1.0142  90.4 21.0 .428 116
2020 08 07 09  01 53 46.776   +47 44 44.26  .00873 1.0141  90.2 21.0 .427 118
2020 08 07 10  01 54 46.930   +47 56 39.44  .00871 1.0141  89.9 21.0 .426 119
2020 08 07 11  01 55 47.793   +48 08 35.53  .00869 1.0141  89.7 21.0 .425 120
2020 08 07 12  01 56 49.374   +48 20 32.44  .00868 1.0140  89.5 21.0 .424 122
2020 08 07 13  01 57 51.684   +48 32 30.12  .00866 1.0140  89.3 21.0 .423 123
2020 08 07 14  01 58 54.735   +48 44 28.50  .00864 1.0139  89.1 21.0 .422 125
2020 08 07 15  01 59 58.537   +48 56 27.52  .00863 1.0139  88.9 21.0 .422 127
2020 08 07 16  02 01 03.101   +49 08 27.11  .00861 1.0139  88.7 21.1 .422 129
2020 08 07 17  02 02 08.438   +49 20 27.20  .00859 1.0138  88.5 21.1 .422 131
2020 08 07 18  02 03 14.561   +49 32 27.71  .00858 1.0138  88.3 21.1 .422 133
2020 08 07 19  02 04 21.481   +49 44 28.58  .00856 1.0138  88.1 21.1 .423 135
2020 08 07 20  02 05 29.209   +49 56 29.72  .00855 1.0137  87.9 21.1 .425 137
2020 08 07 21  02 06 37.758   +50 08 31.06  .00853 1.0137  87.7 21.1 .427 139
2020 08 07 22  02 07 47.139   +50 20 32.52  .00851 1.0136  87.4 21.1 .430 142
2020 08 07 23  02 08 57.364   +50 32 34.01  .00850 1.0136  87.2 21.1 .433 144
2020 08 08 00  02 10 08.447   +50 44 35.46  .00848 1.0136  87.0 21.1 .438 147
2020 08 08 01  02 11 20.398   +50 56 36.78  .00847 1.0135  86.8 21.1 .443 149
2020 08 08 02  02 12 33.232   +51 08 37.88  .00845 1.0135  86.6 21.1 .449 152
2020 08 08 03  02 13 46.960   +51 20 38.66  .00844 1.0135  86.3 21.1 .457 155
2020 08 08 04  02 15 01.596   +51 32 39.05  .00843 1.0134  86.1 21.1 .465 157
2020 08 08 05  02 16 17.152   +51 44 38.94  .00841 1.0134  85.9 21.1 .475 160
2020 08 08 06  02 17 33.641   +51 56 38.24  .00840 1.0133  85.7 21.1 .486 163
2020 08 08 07  02 18 51.077   +52 08 36.85  .00838 1.0133  85.5 21.1 .499 166
2020 08 08 08  02 20 09.473   +52 20 34.67  .00837 1.0133  85.2 21.1 .512 168
2020 08 08 09  02 21 28.842   +52 32 31.59  .00836 1.0132  85.0 21.1 .528 171
2020 08 08 10  02 22 49.197   +52 44 27.52  .00834 1.0132  84.8 21.2 .544 173
2020 08 08 11  02 24 10.553   +52 56 22.34  .00833 1.0131  84.6 21.2 .562 176
2020 08 08 12  02 25 32.922   +53 08 15.94  .00832 1.0131  84.3 21.2 .582 178
2020 08 08 13  02 26 56.319   +53 20 08.22  .00830 1.0131  84.1 21.2 .603   1
2020 08 08 14  02 28 20.757   +53 31 59.05  .00829 1.0130  83.9 21.2 .626   3
2020 08 08 15  02 29 46.250   +53 43 48.33  .00828 1.0130  83.6 21.2 .650   5
2020 08 08 16  02 31 12.812   +53 55 35.93  .00827 1.0130  83.4 21.2 .676   7
2020 08 08 17  02 32 40.456   +54 07 21.73  .00825 1.0129  83.2 21.2 .703  10
2020 08 08 18  02 34 09.197   +54 19 05.61  .00824 1.0129  82.9 21.2 .732  12
2020 08 08 19  02 35 39.048   +54 30 47.44  .00823 1.0128  82.7 21.2 .762  13
2020 08 08 20  02 37 10.023   +54 42 27.09  .00822 1.0128  82.5 21.2 .794  15
2020 08 08 21  02 38 42.137   +54 54 04.43  .00821 1.0128  82.2 21.2 .828  17
2020 08 08 22  02 40 15.402   +55 05 39.33  .00820 1.0127  82.0 21.2 .862  19
2020 08 08 23  02 41 49.832   +55 17 11.66  .00819 1.0127  81.8 21.3 .899  20
2020 08 09 00  02 43 25.442   +55 28 41.26  .00817 1.0127  81.5 21.3 .937  22
2020 08 09 01  02 45 02.245   +55 40 08.01  .00816 1.0126  81.3 21.3 .977  24
2020 08 09 02  02 46 40.253   +55 51 31.76  .00815 1.0126  81.0 21.3 1.02  25